Location: Jewell
(31.5029°N, 97.1961°W)
Time: 23:45:03
(UTC+00:00)

ARIANE 6 FM1 Upper Stage - Pass Details

Date: 17 December 2025
Orbit: 522 x 610 km, 62.0° (Epoch: 15 January)

Event Time Altitude Azimuth Distance (km) Brightness Sun altitude
Exits shadow 11:21:33 60° 69° (ENE) 620 3.0 -24.9°
Drops below altitude 10° 11:24:59 10° 36° (NE) 1,781 5.5 -24.2°
Sets 11:27:10 0° 34° (NE) 2,665 6.4 -23.7°
